| time (UTC) | temp C | wind direction | speed KPH | gust KPH | rain 1hr cm | rain 24hr cm | rain mn cm | humidity % | barometer mb |
| 20260906225901 | 36 | 193 | 4.8 | 4.8 | 0.00 | 0.00 | 0.00 | 41 | 1010.3 |
| 20260906225357 | 36 | 182 | 6.4 | 12.9 | 0.00 | 0.00 | 0.00 | 40 | 1010.4 |
| 20260906224853 | 37 | 160 | 6.4 | 14.5 | 0.00 | 0.00 | 0.00 | 40 | 1010.3 |
| 20260906224349 | 37 | 160 | 3.2 | 4.8 | 0.00 | 0.00 | 0.00 | 41 | 1010.3 |
| 20260906223845 | 37 | 220 | 1.6 | 9.7 | 0.00 | 0.00 | 0.00 | 41 | 1010.3 |
| 20260906223341 | 37 | 180 | 4.8 | 9.7 | 0.00 | 0.00 | 0.00 | 40 | 1010.3 |
| 20260906222839 | 37 | 173 | 3.2 | 4.8 | 0.00 | 0.00 | 0.00 | 39 | 1010.4 |
| 20260906222338 | 37 | 182 | 1.6 | 9.7 | 0.00 | 0.00 | 0.00 | 41 | 1010.4 |
| 20260906221836 | 37 | 95 | 3.2 | 9.7 | 0.00 | 0.00 | 0.00 | 39 | 1010.5 |
| 20260906221336 | 37 | 232 | 3.2 | 11.3 | 0.00 | 0.00 | 0.00 | 40 | 1010.5 |
| 20260906220831 | 38 | 112 | 6.4 | 9.7 | 0.00 | 0.00 | 0.00 | 37 | 1010.4 |
| 20260906220326 | 38 | 348 | 6.4 | 11.3 | 0.00 | 0.00 | 0.00 | 38 | 1010.5 |
| 20260906215825 | 38 | 185 | 3.2 | 6.4 | 0.00 | 0.00 | 0.00 | 39 | 1010.4 |
| 20260906215321 | 37 | 179 | 1.6 | 6.4 | 0.00 | 0.00 | 0.00 | 39 | 1010.5 |
| 20260906214818 | 37 | 171 | 8.0 | 16.1 | 0.00 | 0.00 | 0.00 | 38 | 1010.6 |
| 20260906214313 | 37 | 153 | 4.8 | 14.5 | 0.00 | 0.00 | 0.00 | 39 | 1010.6 |
| 20260906213813 | 37 | 276 | 1.6 | 9.7 | 0.00 | 0.00 | 0.00 | 40 | 1010.6 |
| 20260906213313 | 37 | 152 | 8.0 | 11.3 | 0.00 | 0.00 | 0.00 | 39 | 1010.7 |
| 20260906212810 | 38 | 126 | 8.0 | 11.3 | 0.00 | 0.00 | 0.00 | 38 | 1010.8 |
| 20260906212306 | 37 | 278 | 1.6 | 3.2 | 0.00 | 0.00 | 0.00 | 39 | 1011.0 |
| 20260906211805 | 37 | 172 | 8.0 | 9.7 | 0.00 | 0.00 | 0.00 | 40 | 1010.9 |
| 20260906211300 | 37 | 192 | 4.8 | 16.1 | 0.00 | 0.00 | 0.00 | 40 | 1011.1 |
| 20260906210755 | 37 | 177 | 9.7 | 16.1 | 0.00 | 0.00 | 0.00 | 39 | 1011.1 |
| 20260906210255 | 38 | 181 | 8.0 | 9.7 | 0.00 | 0.00 | 0.00 | 38 | 1011.1 |
| 20260906205755 | 37 | 227 | 6.4 | 11.3 | 0.00 | 0.00 | 0.00 | 39 | 1011.2 |
| 20260906205252 | 38 | 164 | 6.4 | 12.9 | 0.00 | 0.00 | 0.00 | 39 | 1011.3 |
| 20260906204748 | 37 | 185 | 0.0 | 11.3 | 0.00 | 0.00 | 0.00 | 39 | 1011.3 |
| 20260906204247 | 37 | 357 | 1.6 | 6.4 | 0.00 | 0.00 | 0.00 | 40 | 1011.5 |
| 20260906203746 | 36 | 275 | 1.6 | 6.4 | 0.00 | 0.00 | 0.00 | 43 | 1011.5 |
| 20260906203242 | 37 | 200 | 3.2 | 12.9 | 0.00 | 0.00 | 0.00 | 41 | 1011.4 |
| 20260906202738 | 37 | 212 | 3.2 | 11.3 | 0.00 | 0.00 | 0.00 | 41 | 1011.6 |
| 20260906202237 | 37 | 210 | 1.6 | 9.7 | 0.00 | 0.00 | 0.00 | 43 | 1011.8 |
| 20260906201732 | 36 | 175 | 8.0 | 12.9 | 0.00 | 0.00 | 0.00 | 43 | 1011.8 |
| 20260906201232 | 36 | 170 | 4.8 | 12.9 | 0.00 | 0.00 | 0.00 | 43 | 1011.8 |
| 20260906200728 | 36 | 164 | 1.6 | 4.8 | 0.00 | 0.00 | 0.00 | 43 | 1011.9 |
| 20260906200224 | 36 | 132 | 4.8 | 4.8 | 0.00 | 0.00 | 0.00 | 42 | 1011.8 |
| 20260906195719 | 37 | 133 | 4.8 | 12.9 | 0.00 | 0.00 | 0.00 | 41 | 1012.0 |
| 20260906195216 | 37 | 187 | 3.2 | 4.8 | 0.00 | 0.00 | 0.00 | 42 | 1012.2 |
| 20260906194711 | 36 | 175 | 4.8 | 9.7 | 0.00 | 0.00 | 0.00 | 43 | 1012.0 |
| 20260906194206 | 36 | 268 | 4.8 | 4.8 | 0.00 | 0.00 | 0.00 | 43 | 1012.0 |
| 20260906193701 | 36 | 284 | 3.2 | 3.2 | 0.00 | 0.00 | 0.00 | 43 | 1012.1 |
| 20260906193156 | 36 | 213 | 6.4 | 9.7 | 0.00 | 0.00 | 0.00 | 43 | 1012.2 |
| 20260906192652 | 36 | 168 | 6.4 | 25.7 | 0.00 | 0.00 | 0.00 | 44 | 1012.2 |
| 20260906192152 | 36 | 176 | 6.4 | 11.3 | 0.00 | 0.00 | 0.00 | 45 | 1012.2 |
| 20260906191646 | 36 | 184 | 4.8 | 9.7 | 0.00 | 0.00 | 0.00 | 44 | 1012.3 |
| 20260906191146 | 36 | 195 | 3.2 | 12.9 | 0.00 | 0.00 | 0.00 | 44 | 1012.4 |
| 20260906190640 | 36 | 170 | 1.6 | 6.4 | 0.00 | 0.00 | 0.00 | 45 | 1012.5 |
| 20260906190135 | 35 | 167 | 6.4 | 11.3 | 0.00 | 0.00 | 0.00 | 46 | 1012.3 |
| 20260906185634 | 36 | 14 | 6.4 | 9.7 | 0.00 | 0.00 | 0.00 | 45 | 1012.4 |
| 20260906185133 | 36 | 167 | 3.2 | 14.5 | 0.00 | 0.00 | 0.00 | 45 | 1012.7 |
| 20260906184628 | 35 | 198 | 4.8 | 9.7 | 0.00 | 0.00 | 0.00 | 47 | 1012.7 |
| 20260906184124 | 36 | 158 | 1.6 | 6.4 | 0.00 | 0.00 | 0.00 | 46 | 1012.8 |
| 20260906183619 | 36 | 193 | 4.8 | 9.7 | 0.00 | 0.00 | 0.00 | 47 | 1012.8 |
| 20260906183115 | 36 | 187 | 8.0 | 14.5 | 0.00 | 0.00 | 0.00 | 46 | 1013.0 |
| 20260906182609 | 35 | 222 | 1.6 | 6.4 | 0.00 | 0.00 | 0.00 | 47 | 1012.6 |
| 20260906182106 | 35 | 177 | 3.2 | 9.7 | 0.00 | 0.00 | 0.00 | 46 | 1012.9 |
| 20260906181606 | 35 | 109 | 6.4 | 6.4 | 0.00 | 0.00 | 0.00 | 47 | 1013.0 |
| 20260906181102 | 35 | 136 | 3.2 | 14.5 | 0.00 | 0.00 | 0.00 | 46 | 1013.0 |
| 20260906180557 | 36 | 185 | 1.6 | 6.4 | 0.00 | 0.00 | 0.00 | 48 | 1013.1 |
| 20260906180056 | 35 | 185 | 3.2 | 11.3 | 0.00 | 0.00 | 0.00 | 49 | 1013.4 |
| 20260906175555 | 35 | 162 | 9.7 | 11.3 | 0.00 | 0.00 | 0.00 | 47 | 1013.3 |
| 20260906175050 | 35 | 156 | 6.4 | 11.3 | 0.00 | 0.00 | 0.00 | 48 | 1013.3 |
| 20260906174548 | 35 | 131 | 4.8 | 11.3 | 0.00 | 0.00 | 0.00 | 47 | 1013.3 |
| 20260906174044 | 35 | 191 | 4.8 | 9.7 | 0.00 | 0.00 | 0.00 | 49 | 1013.4 |
| 20260906173538 | 35 | 169 | 6.4 | 9.7 | 0.00 | 0.00 | 0.00 | 49 | 1013.6 |
| 20260906173035 | 36 | 154 | 6.4 | 6.4 | 0.00 | 0.00 | 0.00 | 47 | 1013.9 |
| 20260906172534 | 35 | 286 | 1.6 | 4.8 | 0.00 | 0.00 | 0.00 | 49 | 1013.9 |
| 20260906172030 | 35 | 166 | 3.2 | 4.8 | 0.00 | 0.00 | 0.00 | 51 | 1014.0 |
| 20260906171524 | 35 | 167 | 3.2 | 12.9 | 0.00 | 0.00 | 0.00 | 49 | 1014.0 |
| 20260906171020 | 35 | 168 | 1.6 | 6.4 | 0.00 | 0.00 | 0.00 | 51 | 1013.8 |
| 20260906170516 | 34 | 168 | 3.2 | 9.7 | 0.00 | 0.00 | 0.00 | 52 | 1014.0 |
| 20260906170015 | 35 | 143 | 8.0 | 9.7 | 0.00 | 0.00 | 0.00 | 51 | 1013.9 |
| 20260906165512 | 34 | 139 | 4.8 | 6.4 | 0.00 | 0.00 | 0.00 | 52 | 1014.1 |
| 20260906165007 | 33 | 186 | 3.2 | 11.3 | 0.00 | 0.00 | 0.00 | 52 | 1013.9 |
| 20260906164506 | 33 | 170 | 6.4 | 12.9 | 0.00 | 0.00 | 0.00 | 53 | 1014.2 |
| 20260906164003 | 33 | 150 | 6.4 | 9.7 | 0.00 | 0.00 | 0.00 | 53 | 1014.2 |
| 20260906163457 | 33 | 171 | 6.4 | 11.3 | 0.00 | 0.00 | 0.00 | 55 | 1014.2 |
| 20260906162956 | 33 | 185 | 9.7 | 16.1 | 0.00 | 0.00 | 0.00 | 54 | 1014.3 |
| 20260906162454 | 33 | 167 | 1.6 | 6.4 | 0.00 | 0.00 | 0.00 | 54 | 1013.9 |
| 20260906161950 | 33 | 43 | 6.4 | 12.9 | 0.00 | 0.00 | 0.00 | 54 | 1014.1 |
| 20260906161450 | 34 | 138 | 1.6 | 6.4 | 0.00 | 0.00 | 0.00 | 54 | 1014.1 |
| 20260906160949 | 33 | 170 | 1.6 | 9.7 | 0.00 | 0.00 | 0.00 | 55 | 1014.2 |
| 20260906160448 | 33 | 185 | 1.6 | 4.8 | 0.00 | 0.00 | 0.00 | 56 | 1014.1 |
| 20260906155946 | 33 | 178 | 6.4 | 11.3 | 0.00 | 0.00 | 0.00 | 57 | 1014.5 |
| 20260906155445 | 33 | 197 | 1.6 | 6.4 | 0.00 | 0.00 | 0.00 | 56 | 1014.3 |
| 20260906154941 | 32 | 131 | 3.2 | 4.8 | 0.00 | 0.00 | 0.00 | 58 | 1014.1 |
| 20260906154437 | 32 | 179 | 3.2 | 6.4 | 0.00 | 0.00 | 0.00 | 59 | 1014.2 |
| 20260906153935 | 32 | 103 | 1.6 | 3.2 | 0.00 | 0.00 | 0.00 | 59 | 1014.2 |
| 20260906153434 | 32 | 81 | 1.6 | 3.2 | 0.00 | 0.00 | 0.00 | 59 | 1014.1 |
| 20260906152929 | 32 | 120 | 1.6 | 9.7 | 0.00 | 0.00 | 0.00 | 61 | 1014.0 |
| 20260906152424 | 32 | 113 | 4.8 | 6.4 | 0.00 | 0.00 | 0.00 | 63 | 1013.9 |
| 20260906151923 | 32 | 184 | 3.2 | 3.2 | 0.00 | 0.00 | 0.00 | 61 | 1013.7 |
| 20260906151419 | 32 | 199 | 3.2 | 4.8 | 0.00 | 0.00 | 0.00 | 63 | 1013.8 |
| 20260906150914 | 32 | 139 | 3.2 | 3.2 | 0.00 | 0.00 | 0.00 | 62 | 1013.9 |
| 20260906150409 | 32 | 200 | 1.6 | 4.8 | 0.00 | 0.00 | 0.00 | 63 | 1013.8 |
| 20260906145909 | -17 | 17 | 0.0 | 1.6 | 0.00 | 0.00 | 0.00 | 1013.8 | |
| 20260906145407 | -17 | 180 | 3.2 | 3.2 | 0.00 | 0.00 | 0.00 | 1013.7 | |
| 20260906144902 | -17 | 177 | 3.2 | 3.2 | 0.00 | 0.00 | 0.00 | 1013.7 | |
| 20260906144357 | -17 | 300 | 1.6 | 1.6 | 0.00 | 0.00 | 0.00 | 1013.8 | |
| 20260906143852 | -17 | 153 | 1.6 | 3.2 | 0.00 | 0.00 | 0.00 | 1013.7 | |
| 20260906143348 | -17 | 122 | 1.6 | 4.8 | 0.00 | 0.00 | 0.00 | 1013.7 | |
| 20260906142844 | -17 | 184 | 1.6 | 4.8 | 0.00 | 0.00 | 0.00 | 1013.9 | |
| 20260906142338 | -17 | 187 | 1.6 | 3.2 | 0.00 | 0.00 | 0.00 | 1013.9 | |
| 20260906141838 | 30 | 173 | 1.6 | 3.2 | 0.00 | 0.00 | 0.00 | 68 | 1013.9 |
| 20260906141333 | 30 | 202 | 1.6 | 3.2 | 0.00 | 0.00 | 0.00 | 68 | 1014.0 |
| 20260906140832 | 30 | 180 | 3.2 | 4.8 | 0.00 | 0.00 | 0.00 | 68 | 1014.1 |
| 20260906140327 | 30 | 185 | 0.0 | 1.6 | 0.00 | 0.00 | 0.00 | 69 | 1013.9 |
| 20260906135825 | 30 | 186 | 1.6 | 1.6 | 0.00 | 0.00 | 0.00 | 68 | 1013.9 |
| 20260906135320 | 30 | 186 | 0.0 | 1.6 | 0.00 | 0.00 | 0.00 | 71 | 1013.9 |
| 20260906134815 | 30 | 186 | 1.6 | 1.6 | 0.00 | 0.00 | 0.00 | 70 | 1013.7 |
| 20260906134310 | 29 | 134 | 0.0 | 0.0 | 0.00 | 0.00 | 0.00 | 71 | 1013.8 |
| 20260906133806 | 29 | 179 | 0.0 | 3.2 | 0.00 | 0.00 | 0.00 | 72 | 1013.9 |
| 20260906133301 | 30 | 145 | 0.0 | 0.0 | 0.00 | 0.00 | 0.00 | 72 | 1013.8 |
| 20260906132756 | -17 | 185 | 0.0 | 0.0 | 0.00 | 0.00 | 0.00 | 1013.9 | |
| 20260906132252 | 27 | 185 | 0.0 | 0.0 | 0.00 | 0.00 | 0.00 | 77 | 1013.9 |
| 20260906131747 | 27 | 186 | 0.0 | 0.0 | 0.00 | 0.00 | 0.00 | 79 | 1013.7 |
| 20260906131248 | 27 | 186 | 0.0 | 0.0 | 0.00 | 0.00 | 0.00 | 80 | 1013.7 |
| 20260906130743 | 27 | 187 | 0.0 | 0.0 | 0.00 | 0.00 | 0.00 | 80 | 1013.7 |
| 20260906130238 | 27 | 187 | 0.0 | 0.0 | 0.00 | 0.00 | 0.00 | 81 | 1013.6 |
| 20260906125736 | 27 | 187 | 0.0 | 0.0 | 0.00 | 0.00 | 0.00 | 81 | 1013.6 |
| 20260906125235 | 26 | 187 | 0.0 | 0.0 | 0.00 | 0.00 | 0.00 | 82 | 1013.6 |
| 20260906124729 | 26 | 187 | 0.0 | 0.0 | 0.00 | 0.00 | 0.00 | 82 | 1013.8 |
| 20260906124226 | 26 | 187 | 0.0 | 0.0 | 0.00 | 0.00 | 0.00 | 82 | 1013.6 |
| 20260906123724 | 26 | 187 | 0.0 | 0.0 | 0.00 | 0.00 | 0.00 | 83 | 1013.6 |
| 20260906123220 | 26 | 187 | 0.0 | 0.0 | 0.00 | 0.00 | 0.00 | 83 | 1013.4 |
| 20260906122719 | 26 | 187 | 0.0 | 0.0 | 0.00 | 0.00 | 0.00 | 83 | 1013.4 |
| 20260906122214 | 26 | 187 | 0.0 | 0.0 | 0.00 | 0.00 | 0.00 | 83 | 1013.3 |
| 20260906121711 | 26 | 187 | 0.0 | 0.0 | 0.00 | 0.00 | 0.00 | 83 | 1013.4 |
| 20260906121207 | 26 | 187 | 0.0 | 0.0 | 0.00 | 0.00 | 0.00 | 83 | 1013.3 |
| 20260906120702 | 26 | 187 | 0.0 | 0.0 | 0.00 | 0.00 | 0.00 | 83 | 1013.2 |
| 20260906120159 | 26 | 187 | 0.0 | 0.0 | 0.00 | 0.00 | 0.00 | 82 | 1013.0 |
| 20260906115700 | 26 | 187 | 0.0 | 1.6 | 0.00 | 0.00 | 0.00 | 82 | 1013.1 |
| 20260906115155 | 26 | 187 | 0.0 | 0.0 | 0.00 | 0.00 | 0.00 | 82 | 1013.0 |
| 20260906114654 | 26 | 187 | 0.0 | 0.0 | 0.00 | 0.00 | 0.00 | 81 | 1013.2 |
| 20260906114150 | 26 | 187 | 0.0 | 1.6 | 0.00 | 0.00 | 0.00 | 81 | 1013.0 |
| 20260906113650 | 26 | 187 | 0.0 | 1.6 | 0.00 | 0.00 | 0.00 | 80 | 1013.0 |
| 20260906113149 | 26 | 187 | 0.0 | 0.0 | 0.00 | 0.00 | 0.00 | 79 | 1012.8 |
| 20260906112649 | 26 | 187 | 1.6 | 1.6 | 0.00 | 0.00 | 0.00 | 79 | 1012.7 |
| 20260906112146 | 26 | 187 | 1.6 | 1.6 | 0.00 | 0.00 | 0.00 | 79 | 1012.9 |
| 20260906111645 | 26 | 187 | 0.0 | 0.0 | 0.00 | 0.00 | 0.00 | 79 | 1012.7 |
| 20260906111140 | 27 | 187 | 0.0 | 1.6 | 0.00 | 0.00 | 0.00 | 79 | 1012.8 |
| 20260906110635 | 26 | 187 | 0.0 | 1.6 | 0.00 | 0.00 | 0.00 | 79 | 1012.9 |
| 20260906110130 | 26 | 187 | 0.0 | 0.0 | 0.00 | 0.00 | 0.00 | 79 | 1012.9 |
| 20260906105624 | 26 | 187 | 0.0 | 0.0 | 0.00 | 0.00 | 0.00 | 80 | 1012.9 |
| 20260906105120 | 26 | 187 | 0.0 | 0.0 | 0.00 | 0.00 | 0.00 | 80 | 1012.6 |
| 20260906104619 | 26 | 187 | 0.0 | 0.0 | 0.00 | 0.00 | 0.00 | 80 | 1012.7 |
| 20260906104113 | 26 | 187 | 0.0 | 0.0 | 0.00 | 0.00 | 0.00 | 79 | 1012.6 |
| 20260906103612 | 26 | 187 | 0.0 | 0.0 | 0.00 | 0.00 | 0.00 | 79 | 1012.7 |
| 20260906103107 | 27 | 187 | 0.0 | 0.0 | 0.00 | 0.00 | 0.00 | 79 | 1012.7 |
| 20260906102608 | 27 | 187 | 0.0 | 0.0 | 0.00 | 0.00 | 0.00 | 79 | 1012.6 |
| 20260906102102 | 27 | 187 | 0.0 | 0.0 | 0.00 | 0.00 | 0.00 | 78 | 1012.7 |
| 20260906101602 | 27 | 187 | 0.0 | 0.0 | 0.00 | 0.00 | 0.00 | 77 | 1012.7 |
| 20260906101102 | 27 | 187 | 0.0 | 0.0 | 0.00 | 0.00 | 0.00 | 77 | 1012.5 |
| 20260906100558 | 27 | 187 | 0.0 | 0.0 | 0.00 | 0.00 | 0.00 | 76 | 1012.6 |
| 20260906100059 | 27 | 187 | 0.0 | 0.0 | 0.00 | 0.00 | 0.00 | 76 | 1012.3 |
| 20260906095558 | 27 | 187 | 0.0 | 1.6 | 0.00 | 0.00 | 0.00 | 76 | 1012.5 |
| 20260906095054 | 27 | 187 | 0.0 | 0.0 | 0.00 | 0.00 | 0.00 | 76 | 1012.6 |
| 20260906094553 | 27 | 187 | 1.6 | 1.6 | 0.00 | 0.00 | 0.00 | 76 | 1012.4 |
| 20260906094049 | 27 | 187 | 1.6 | 1.6 | 0.00 | 0.00 | 0.00 | 75 | 1012.2 |
| 20260906093544 | 27 | 187 | 0.0 | 3.2 | 0.00 | 0.00 | 0.00 | 75 | 1012.1 |
| 20260906093039 | 27 | 184 | 0.0 | 1.6 | 0.00 | 0.00 | 0.00 | 75 | 1012.3 |
| 20260906092534 | 27 | 184 | 0.0 | 1.6 | 0.00 | 0.00 | 0.00 | 74 | 1012.1 |
| 20260906092029 | 27 | 177 | 1.6 | 3.2 | 0.00 | 0.00 | 0.00 | 74 | 1012.1 |
| 20260906091525 | 27 | 190 | 3.2 | 4.8 | 0.00 | 0.00 | 0.00 | 74 | 1011.8 |
| 20260906091021 | 28 | 177 | 1.6 | 3.2 | 0.00 | 0.00 | 0.00 | 74 | 1012.0 |
| 20260906090522 | 28 | 172 | 4.8 | 6.4 | 0.00 | 0.00 | 0.00 | 74 | 1012.0 |
| 20260906090017 | 28 | 184 | 1.6 | 4.8 | 0.00 | 0.00 | 0.00 | 74 | 1011.8 |
| 20260906085515 | 28 | 200 | 1.6 | 4.8 | 0.00 | 0.00 | 0.00 | 74 | 1011.9 |
| 20260906085015 | 28 | 194 | 1.6 | 6.4 | 0.00 | 0.00 | 0.00 | 73 | 1011.9 |
| 20260906084516 | 28 | 183 | 3.2 | 6.4 | 0.00 | 0.00 | 0.00 | 73 | 1012.0 |
| 20260906084014 | 28 | 192 | 4.8 | 6.4 | 0.00 | 0.00 | 0.00 | 73 | 1012.1 |
| 20260906083510 | 28 | 182 | 1.6 | 6.4 | 0.00 | 0.00 | 0.00 | 73 | 1012.1 |
| 20260906083010 | 28 | 186 | 4.8 | 9.7 | 0.00 | 0.00 | 0.00 | 73 | 1011.9 |
| 20260906082505 | 28 | 195 | 3.2 | 6.4 | 0.00 | 0.00 | 0.00 | 73 | 1011.9 |
| 20260906082001 | 28 | 155 | 3.2 | 4.8 | 0.00 | 0.00 | 0.00 | 73 | 1011.9 |
| 20260906081456 | 28 | 187 | 1.6 | 4.8 | 0.00 | 0.00 | 0.00 | 73 | 1011.9 |
| 20260906080952 | 28 | 129 | 4.8 | 4.8 | 0.00 | 0.00 | 0.00 | 73 | 1011.9 |
| 20260906080448 | 28 | 179 | 1.6 | 4.8 | 0.00 | 0.00 | 0.00 | 73 | 1012.0 |
| 20260906075943 | 28 | 176 | 3.2 | 6.4 | 0.00 | 0.00 | 0.00 | 72 | 1012.2 |
| 20260906075438 | 28 | 182 | 1.6 | 4.8 | 0.00 | 0.00 | 0.00 | 72 | 1012.1 |
| 20260906074933 | 28 | 194 | 3.2 | 6.4 | 0.00 | 0.00 | 0.00 | 72 | 1012.1 |
| 20260906074432 | 28 | 209 | 1.6 | 4.8 | 0.00 | 0.00 | 0.00 | 72 | 1012.2 |
| 20260906073931 | 28 | 193 | 1.6 | 6.4 | 0.00 | 0.00 | 0.00 | 72 | 1012.0 |
| 20260906073426 | 28 | 172 | 1.6 | 4.8 | 0.00 | 0.00 | 0.00 | 72 | 1012.1 |
| 20260906072923 | 28 | 182 | 3.2 | 3.2 | 0.00 | 0.00 | 0.00 | 72 | 1012.0 |
| 20260906072418 | 28 | 182 | 0.0 | 0.0 | 0.00 | 0.00 | 0.00 | 72 | 1012.1 |
| 20260906071914 | 28 | 183 | 0.0 | 1.6 | 0.00 | 0.00 | 0.00 | 71 | 1012.1 |
| 20260906071409 | 28 | 160 | 4.8 | 4.8 | 0.00 | 0.00 | 0.00 | 71 | 1012.1 |
| 20260906070905 | 28 | 198 | 1.6 | 3.2 | 0.00 | 0.00 | 0.00 | 71 | 1012.3 |
| 20260906070401 | 28 | 197 | 3.2 | 6.4 | 0.00 | 0.00 | 0.00 | 71 | 1012.4 |
| 20260906065856 | 28 | 184 | 1.6 | 3.2 | 0.00 | 0.00 | 0.00 | 70 | 1012.2 |
| 20260906065350 | 28 | 179 | 3.2 | 3.2 | 0.00 | 0.00 | 0.00 | 70 | 1012.3 |
| 20260906064846 | 29 | 161 | 3.2 | 3.2 | 0.00 | 0.00 | 0.00 | 69 | 1012.4 |
| 20260906064343 | 29 | 180 | 1.6 | 1.6 | 0.00 | 0.00 | 0.00 | 69 | 1012.1 |
| 20260906063842 | 29 | 180 | 1.6 | 3.2 | 0.00 | 0.00 | 0.00 | 69 | 1012.4 |
| 20260906063338 | 29 | 189 | 3.2 | 6.4 | 0.00 | 0.00 | 0.00 | 68 | 1012.2 |
| 20260906062833 | 29 | 178 | 1.6 | 3.2 | 0.00 | 0.00 | 0.00 | 68 | 1012.2 |
| 20260906062332 | 29 | 176 | 3.2 | 6.4 | 0.00 | 0.00 | 0.00 | 67 | 1012.4 |
| 20260906061827 | 29 | 187 | 1.6 | 3.2 | 0.00 | 0.00 | 0.00 | 67 | 1012.4 |
| 20260906061324 | 29 | 153 | 4.8 | 4.8 | 0.00 | 0.00 | 0.00 | 66 | 1012.3 |
| 20260906060818 | 29 | 140 | 4.8 | 4.8 | 0.00 | 0.00 | 0.00 | 66 | 1012.4 |
| 20260906060316 | 30 | 192 | 1.6 | 3.2 | 0.00 | 0.00 | 0.00 | 66 | 1012.5 |
| 20260906055812 | 30 | 171 | 4.8 | 4.8 | 0.00 | 0.00 | 0.00 | 65 | 1012.3 |
| 20260906055307 | 30 | 179 | 3.2 | 4.8 | 0.00 | 0.00 | 0.00 | 65 | 1012.2 |
| 20260906054802 | 30 | 181 | 3.2 | 4.8 | 0.00 | 0.00 | 0.00 | 65 | 1012.3 |
| 20260906054258 | 30 | 192 | 3.2 | 4.8 | 0.00 | 0.00 | 0.00 | 64 | 1012.4 |
| 20260906053754 | 30 | 187 | 6.4 | 6.4 | 0.00 | 0.00 | 0.00 | 64 | 1012.2 |
| 20260906053249 | 30 | 196 | 1.6 | 3.2 | 0.00 | 0.00 | 0.00 | 64 | 1012.2 |
| 20260906052744 | 30 | 173 | 3.2 | 3.2 | 0.00 | 0.00 | 0.00 | 65 | 1012.3 |
| 20260906052240 | 30 | 173 | 0.0 | 0.0 | 0.00 | 0.00 | 0.00 | 66 | 1012.2 |
| 20260906051737 | 30 | 173 | 0.0 | 0.0 | 0.00 | 0.00 | 0.00 | 65 | 1012.4 |
| 20260906051237 | 30 | 173 | 1.6 | 3.2 | 0.00 | 0.00 | 0.00 | 65 | 1012.5 |
| 20260906050732 | 30 | 173 | 0.0 | 3.2 | 0.00 | 0.00 | 0.00 | 65 | 1012.4 |
| 20260906050227 | 30 | 183 | 1.6 | 3.2 | 0.00 | 0.00 | 0.00 | 65 | 1012.3 |
| 20260906045726 | 30 | 177 | 0.0 | 1.6 | 0.00 | 0.00 | 0.00 | 65 | 1012.5 |
| 20260906045221 | 30 | 185 | 1.6 | 3.2 | 0.00 | 0.00 | 0.00 | 65 | 1012.2 |
| 20260906044717 | 30 | 176 | 3.2 | 4.8 | 0.00 | 0.00 | 0.00 | 64 | 1012.3 |
| 20260906044212 | 30 | 173 | 1.6 | 4.8 | 0.00 | 0.00 | 0.00 | 64 | 1012.4 |
| 20260906043708 | 30 | 170 | 3.2 | 6.4 | 0.00 | 0.00 | 0.00 | 64 | 1012.3 |
| 20260906043204 | 30 | 169 | 1.6 | 4.8 | 0.00 | 0.00 | 0.00 | 63 | 1012.3 |
| 20260906042703 | 30 | 174 | 4.8 | 9.7 | 0.00 | 0.00 | 0.00 | 62 | 1012.4 |
| 20260906042203 | 30 | 158 | 3.2 | 6.4 | 0.00 | 0.00 | 0.00 | 62 | 1012.3 |
| 20260906041658 | 30 | 189 | 1.6 | 6.4 | 0.00 | 0.00 | 0.00 | 62 | 1012.3 |
| 20260906041153 | 30 | 151 | 1.6 | 6.4 | 0.00 | 0.00 | 0.00 | 62 | 1012.4 |
| 20260906040649 | 30 | 187 | 4.8 | 6.4 | 0.00 | 0.00 | 0.00 | 62 | 1012.2 |
| 20260906040144 | 30 | 183 | 4.8 | 6.4 | 0.00 | 0.00 | 0.00 | 62 | 1012.1 |
| 20260906035644 | 30 | 201 | 3.2 | 3.2 | 0.00 | 0.00 | 0.00 | 62 | 1012.2 |
| 20260906035140 | 31 | 176 | 0.0 | 1.6 | 0.00 | 0.00 | 0.00 | 62 | 1012.3 |
| 20260906034636 | 31 | 181 | 6.4 | 4.8 | 0.00 | 0.00 | 0.00 | 61 | 1012.3 |
| 20260906034135 | 31 | 178 | 6.4 | 6.4 | 0.00 | 0.00 | 0.00 | 61 | 1012.2 |
| 20260906033631 | 31 | 192 | 3.2 | 3.2 | 0.00 | 0.00 | 0.00 | 61 | 1012.1 |
| 20260906033126 | 31 | 184 | 3.2 | 6.4 | 0.00 | 0.00 | 0.00 | 60 | 1012.3 |
| 20260906032623 | 31 | 102 | 3.2 | 4.8 | 0.00 | 0.00 | 0.00 | 60 | 1012.0 |
| 20260906032122 | 31 | 154 | 3.2 | 6.4 | 0.00 | 0.00 | 0.00 | 60 | 1012.2 |
| 20260906031618 | 31 | 174 | 3.2 | 9.7 | 0.00 | 0.00 | 0.00 | 60 | 1012.1 |
| 20260906031113 | 31 | 109 | 8.0 | 11.3 | 0.00 | 0.00 | 0.00 | 59 | 1012.3 |
| 20260906030612 | 31 | 185 | 4.8 | 9.7 | 0.00 | 0.00 | 0.00 | 59 | 1012.5 |
| 20260906030108 | 31 | 183 | 3.2 | 4.8 | 0.00 | 0.00 | 0.00 | 59 | 1012.5 |
| 20260906025607 | 31 | 149 | 1.6 | 6.4 | 0.00 | 0.00 | 0.00 | 58 | 1012.4 |
| 20260906025106 | 31 | 188 | 1.6 | 9.7 | 0.00 | 0.00 | 0.00 | 58 | 1012.4 |
| 20260906024601 | 31 | 170 | 4.8 | 11.3 | 0.00 | 0.00 | 0.00 | 58 | 1012.0 |
| 20260906024055 | 31 | 134 | 3.2 | 14.5 | 0.00 | 0.00 | 0.00 | 58 | 1012.2 |
| 20260906023551 | 31 | 161 | 4.8 | 6.4 | 0.00 | 0.00 | 0.00 | 57 | 1012.1 |
| 20260906023045 | 31 | 162 | 4.8 | 11.3 | 0.00 | 0.00 | 0.00 | 57 | 1012.0 |
| 20260906022541 | 31 | 167 | 3.2 | 4.8 | 0.00 | 0.00 | 0.00 | 57 | 1012.0 |
| 20260906022036 | 31 | 204 | 3.2 | 4.8 | 0.00 | 0.00 | 0.00 | 57 | 1011.8 |
| 20260906021532 | 31 | 196 | 4.8 | 14.5 | 0.00 | 0.00 | 0.00 | 57 | 1011.6 |
| 20260906021031 | 31 | 153 | 4.8 | 9.7 | 0.00 | 0.00 | 0.00 | 56 | 1011.4 |
| 20260906020530 | 31 | 196 | 6.4 | 11.3 | 0.00 | 0.00 | 0.00 | 56 | 1011.6 |
| 20260906020030 | 31 | 174 | 3.2 | 11.3 | 0.00 | 0.00 | 0.00 | 56 | 1011.5 |
| 20260906015530 | 32 | 185 | 3.2 | 12.9 | 0.00 | 0.00 | 0.00 | 56 | 1011.5 |
| 20260906015029 | 32 | 164 | 4.8 | 9.7 | 0.00 | 0.00 | 0.00 | 56 | 1011.4 |
| 20260906014524 | 32 | 176 | 11.3 | 14.5 | 0.00 | 0.00 | 0.00 | 55 | 1011.4 |
| 20260906014020 | 32 | 152 | 8.0 | 12.9 | 0.00 | 0.00 | 0.00 | 54 | 1011.1 |
| 20260906013516 | 32 | 170 | 8.0 | 16.1 | 0.00 | 0.00 | 0.00 | 54 | 1011.1 |
| 20260906013011 | 32 | 220 | 6.4 | 22.5 | 0.00 | 0.00 | 0.00 | 53 | 1010.9 |
| 20260906012506 | 33 | 129 | 9.7 | 16.1 | 0.00 | 0.00 | 0.00 | 51 | 1011.0 |
| 20260906012005 | 33 | 169 | 4.8 | 11.3 | 0.00 | 0.00 | 0.00 | 50 | 1010.9 |
| 20260906011502 | 33 | 156 | 9.7 | 14.5 | 0.00 | 0.00 | 0.00 | 50 | 1010.6 |
| 20260906010956 | 34 | 164 | 3.2 | 12.9 | 0.00 | 0.00 | 0.00 | 49 | 1010.6 |
| 20260906010451 | 34 | 150 | 11.3 | 20.9 | 0.00 | 0.00 | 0.00 | 48 | 1010.7 |
| 20260906005948 | 35 | 166 | 9.7 | 20.9 | 0.00 | 0.00 | 0.00 | 47 | 1010.4 |
| 20260906005447 | 35 | 182 | 4.8 | 9.7 | 0.00 | 0.00 | 0.00 | 44 | 1010.4 |
| 20260906004945 | 35 | 163 | 1.6 | 4.8 | 0.00 | 0.00 | 0.00 | 43 | 1010.4 |
| 20260906004440 | 35 | 193 | 1.6 | 6.4 | 0.00 | 0.00 | 0.00 | 43 | 1010.2 |
| 20260906003936 | 35 | 161 | 4.8 | 6.4 | 0.00 | 0.00 | 0.00 | 42 | 1010.3 |
| 20260906003436 | 36 | 154 | 3.2 | 11.3 | 0.00 | 0.00 | 0.00 | 42 | 1010.3 |
| 20260906002931 | 36 | 126 | 4.8 | 11.3 | 0.00 | 0.00 | 0.00 | 42 | 1010.3 |
| 20260906002430 | 36 | 99 | 3.2 | 6.4 | 0.00 | 0.00 | 0.00 | 41 | 1010.3 |
| 20260906001925 | 36 | 140 | 1.6 | 11.3 | 0.00 | 0.00 | 0.00 | 41 | 1010.4 |
| 20260906001421 | 36 | 117 | 4.8 | 6.4 | 0.00 | 0.00 | 0.00 | 41 | 1010.2 |
| 20260906000917 | 36 | 175 | 4.8 | 6.4 | 0.00 | 0.00 | 0.00 | 40 | 1010.3 |
| 20260906000412 | 36 | 164 | 1.6 | 4.8 | 0.00 | 0.00 | 0.00 | 40 | 1010.3 |
| 20260905235907 | 36 | 172 | 3.2 | 4.8 | 0.00 | 0.00 | 0.00 | 40 | 1010.3 |
| 20260905235400 | 36 | 160 | 6.4 | 11.3 | 0.00 | 0.00 | 0.00 | 39 | 1010.2 |
| 20260905234856 | 36 | 109 | 3.2 | 3.2 | 0.00 | 0.00 | 0.00 | 39 | 1010.0 |
| 20260905234351 | 36 | 144 | 0.0 | 1.6 | 0.00 | 0.00 | 0.00 | 40 | 1010.2 |
| 20260905233846 | 36 | 158 | 3.2 | 3.2 | 0.00 | 0.00 | 0.00 | 39 | 1009.9 |
| 20260905233341 | 37 | 179 | 6.4 | 11.3 | 0.00 | 0.00 | 0.00 | 39 | 1010.1 |
| 20260905232840 | 37 | 180 | 3.2 | 11.3 | 0.00 | 0.00 | 0.00 | 39 | 1010.1 |
| 20260905232337 | 37 | 210 | 0.0 | 3.2 | 0.00 | 0.00 | 0.00 | 39 | 1009.9 |
| 20260905231832 | 36 | 137 | 4.8 | 6.4 | 0.00 | 0.00 | 0.00 | 39 | 1010.1 |
| 20260905231327 | 37 | 145 | 4.8 | 6.4 | 0.00 | 0.00 | 0.00 | 39 | 1010.0 |
| 20260905230824 | 37 | 192 | 3.2 | 6.4 | 0.00 | 0.00 | 0.00 | 39 | 1009.9 |
| 20260905230321 | 37 | 187 | 3.2 | 4.8 | 0.00 | 0.00 | 0.00 | 39 | 1010.1 |